Location: Reutlingen
(48.4911°N, 9.2587°E)
Time: 15:38:34
(UTC+01:00)

Tiangong 2 - Visible Passes

Search period start: 21 January 2018 00:00
Search period end: 31 January 2018 00:00
Orbit: 384 x 390 km, 42.8° (Epoch: 20 January)

Date Brightness Start Highest point End Pass type
(mag) Time Alt. Az. Time Alt. Az. Time Alt. Az.
21 Jan 4.2 05:20:02 12° SE 05:20:02 12° SE 05:20:47 10° SE visible
21 Jan 2.9 06:52:32 10° SW 06:55:18 27° S 06:58:05 10° ESE visible
22 Jan 2.9 05:56:28 23° S 05:56:45 23° SSE 05:59:22 10° ESE visible
23 Jan 2.6 06:32:49 18° SW 06:34:30 29° S 06:37:19 10° ESE visible
24 Jan 3.2 05:36:50 23° SE 05:36:50 23° SE 05:38:41 10° ESE visible
24 Jan 2.9 07:09:34 10° WSW 07:12:15 25° S 07:14:56 10° SE visible
25 Jan 2.5 06:13:05 26° SSW 06:13:40 28° S 06:16:27 10° SE visible
26 Jan 4.0 05:17:03 16° SE 05:17:03 16° SE 05:17:53 10° ESE visible
26 Jan 3.1 06:49:19 12° WSW 06:51:22 20° SSW 06:53:46 10° SSE visible
27 Jan 2.9 05:53:17 23° S 05:53:17 23° S 05:55:27 10° SE visible
28 Jan 3.3 06:29:33 14° SW 06:30:24 15° SSW 06:32:17 10° SSE visible
29 Jan 3.8 05:33:34 13° SSE 05:33:34 13° SSE 05:34:14 10° SSE visible
